When you browse on this site, cookies collect data to enhance your experience and personalize the content and advertising you see.
Visit our Privacy Policy to learn more. By continuing to use the site, you agree to this use of cookies and data.
  • In Hungary
  • List of Countries
  • For 7 days
  • Water Temperature
  • Satellite Maps
  • Weather Map
  • News
  • Weather Widgets
  • user-avatar
    Login

    Hourly Weather Acayucan

    Today, 17 February, Sunday

    Time Temperature Precipitation Wind Pressure Humidity
    00:00 +26°C° 0 mm 5 mps 747 mmHg 75%
    01:00 +26°C° 0 mm 5 mps 747 mmHg 76%
    02:00 +26°C° 0 mm 5 mps 747 mmHg 76%
    03:00 +26°C° 0 mm 5 mps 746 mmHg 77%
    04:00 +26°C° 0 mm 5 mps 746 mmHg 77%
    05:00 +26°C° 0 mm 5 mps 746 mmHg 77%
    06:00 +26°C° 0 mm 6 mps 746 mmHg 76%
    07:00 +26°C° 0 mm 7 mps 747 mmHg 76%
    08:00 +27°C° 0 mm 7 mps 747 mmHg 76%
    09:00 +28°C° 0 mm 8 mps 747 mmHg 76%
    10:00 +29°C° 0 mm 8 mps 747 mmHg 72%
    11:00 +31°C° 0 mm 9 mps 747 mmHg 68%
    12:00 +32°C° 0 mm 9 mps 747 mmHg 64%
    13:00 +32°C° 0 mm 9 mps 746 mmHg 64%
    14:00 +33°C° 0 mm 9 mps 746 mmHg 63%
    15:00 +33°C° 0 mm 9 mps 745 mmHg 63%
    16:00 +31°C° 0 mm 8 mps 746 mmHg 67%
    17:00 +29°C° 0 mm 7 mps 746 mmHg 70%
    18:00 +27°C° 0 mm 7 mps 746 mmHg 74%
    19:00 +27°C° 0 mm 6 mps 747 mmHg 73%
    20:00 +27°C° 0 mm 6 mps 747 mmHg 71%
    21:00 +26°C° 0 mm 6 mps 748 mmHg 70%
    22:00 +26°C° 0 mm 5 mps 748 mmHg 73%
    23:00 +26°C° 0 mm 5 mps 749 mmHg 75%

    Tomorrow, 18 February, Monday

    Time Temperature Precipitation Wind Pressure Humidity
    00:00 +25°C° 0 mm 4 mps 749 mmHg 77%
    01:00 +25°C° 0 mm 4 mps 749 mmHg 79%
    02:00 +25°C° 0 mm 4 mps 749 mmHg 81%
    03:00 +25°C° 0 mm 3 mps 749 mmHg 83%
    04:00 +24°C° 0 mm 2 mps 749 mmHg 85%
    05:00 +24°C° 0 mm 2 mps 750 mmHg 87%
    06:00 +23°C° 0 mm 1 mps 750 mmHg 88%
    07:00 +25°C° 0 mm 2 mps 751 mmHg 85%
    08:00 +26°C° 0 mm 2 mps 751 mmHg 82%
    09:00 +27°C° 0 mm 3 mps 752 mmHg 79%
    10:00 +28°C° 0 mm 2 mps 752 mmHg 78%
    11:00 +29°C° 0 mm 2 mps 752 mmHg 77%
    12:00 +30°C° 0 mm 2 mps 752 mmHg 75%
    13:00 +30°C° 0 mm 2 mps 752 mmHg 75%
    14:00 +30°C° 0 mm 2 mps 751 mmHg 74%
    15:00 +31°C° 0 mm 2 mps 750 mmHg 73%
    16:00 +30°C° 0 mm 2 mps 751 mmHg 77%
    17:00 +29°C° 0 mm 2 mps 751 mmHg 80%
    18:00 +28°C° 0 mm 2 mps 751 mmHg 84%
    19:00 +27°C° 0 mm 2 mps 751 mmHg 86%
    20:00 +26°C° 0 mm 2 mps 752 mmHg 88%
    21:00 +25°C° 0 mm 1 mps 753 mmHg 90%
    22:00 +25°C° 0 mm 1 mps 753 mmHg 91%
    23:00 +25°C° 0 mm 1 mps 753 mmHg 91%

    Day after tomorrow, 19 February, Tuesday

    Time Temperature Precipitation Wind Pressure Humidity
    00:00 +25°C° 0 mm 1 mps 753 mmHg 92%
    01:00 +25°C° 0 mm 1 mps 752 mmHg 94%
    02:00 +24°C° 0 mm 1 mps 752 mmHg 95%
    03:00 +24°C° 0 mm 1 mps 752 mmHg 97%
    04:00 +24°C° 0 mm 1 mps 752 mmHg 97%
    05:00 +24°C° 0 mm 1 mps 751 mmHg 97%
    06:00 +22°C° 0 mm 0 mps 751 mmHg 97%
    07:00 +25°C° 0 mm 1 mps 752 mmHg 95%
    08:00 +25°C° 0 mm 1 mps 752 mmHg 93%
    09:00 +26°C° 0 mm 1 mps 753 mmHg 91%
    10:00 +27°C° 0 mm 2 mps 752 mmHg 87%
    11:00 +28°C° 0 mm 2 mps 752 mmHg 82%
    12:00 +30°C° 0 mm 2 mps 752 mmHg 77%
    13:00 +30°C° 0 mm 2 mps 750 mmHg 74%
    14:00 +31°C° 0 mm 3 mps 749 mmHg 71%
    15:00 +33°C° 0 mm 3 mps 748 mmHg 67%
    16:00 +31°C° 0 mm 3 mps 748 mmHg 73%
    17:00 +30°C° 0 mm 3 mps 748 mmHg 79%
    18:00 +29°C° 0 mm 3 mps 748 mmHg 85%
    19:00 +28°C° 0 mm 3 mps 748 mmHg 87%
    20:00 +27°C° 0 mm 3 mps 749 mmHg 89%
    21:00 +26°C° 0 mm 3 mps 749 mmHg 92%
    22:00 +26°C° 0 mm 3 mps 749 mmHg 88%
    23:00 +25°C° 0 mm 3 mps 749 mmHg 84%

    20 February, Wednesday

    Time Temperature Precipitation Wind Pressure Humidity
    00:00 +25°C° 0 mm 3 mps 749 mmHg 81%
    01:00 +24°C° 0 mm 3 mps 749 mmHg 81%
    02:00 +23°C° 0 mm 4 mps 748 mmHg 81%
    03:00 +22°C° 0 mm 4 mps 747 mmHg 81%
    04:00 +22°C° 0 mm 3 mps 747 mmHg 83%
    05:00 +22°C° 0 mm 3 mps 747 mmHg 85%
    06:00 +22°C° 0 mm 3 mps 748 mmHg 86%
    07:00 +23°C° 0 mm 4 mps 748 mmHg 83%
    08:00 +25°C° 0 mm 4 mps 749 mmHg 79%
    09:00 +26°C° 0 mm 5 mps 749 mmHg 76%
    10:00 +28°C° 0 mm 6 mps 749 mmHg 69%
    11:00 +30°C° 0 mm 6 mps 749 mmHg 63%
    12:00 +33°C° 0 mm 7 mps 748 mmHg 57%
    13:00 +33°C° 0 mm 7 mps 748 mmHg 56%
    14:00 +33°C° 0 mm 7 mps 747 mmHg 54%
    15:00 +34°C° 0 mm 7 mps 746 mmHg 53%
    16:00 +32°C° 0 mm 6 mps 746 mmHg 56%
    17:00 +29°C° 0 mm 6 mps 746 mmHg 60%
    18:00 +27°C° 0 mm 6 mps 746 mmHg 63%
    19:00 +27°C° 0 mm 5 mps 747 mmHg 61%
    20:00 +26°C° 0 mm 5 mps 748 mmHg 58%
    21:00 +26°C° 0 mm 5 mps 749 mmHg 56%
    22:00 +25°C° 0 mm 5 mps 749 mmHg 61%
    23:00 +25°C° 0 mm 4 mps 749 mmHg 67%

    21 February, Thursday

    Time Temperature Precipitation Wind Pressure Humidity
    00:00 +24°C° 0 mm 3 mps 750 mmHg 73%
    01:00 +22°C° 0 mm 3 mps 749 mmHg 79%
    02:00 +23°C° 0 mm 2 mps 749 mmHg 86%
    03:00 +21°C° 0 mm 2 mps 749 mmHg 92%
    04:00 +22°C° 0 mm 1 mps 749 mmHg 93%
    05:00 +22°C° 0 mm 1 mps 749 mmHg 95%
    06:00 +21°C° 0 mm 1 mps 749 mmHg 96%
    07:00 +23°C° 0 mm 1 mps 750 mmHg 91%
    08:00 +24°C° 0 mm 2 mps 751 mmHg 86%
    09:00 +26°C° 0 mm 2 mps 751 mmHg 82%
    10:00 +27°C° 0 mm 2 mps 751 mmHg 76%
    11:00 +29°C° 0 mm 2 mps 750 mmHg 70%
    12:00 +31°C° 0 mm 3 mps 750 mmHg 64%
    13:00 +31°C° 0 mm 2 mps 749 mmHg 61%
    14:00 +32°C° 0 mm 2 mps 748 mmHg 58%
    15:00 +34°C° 0 mm 2 mps 747 mmHg 55%
    16:00 +31°C° 0 mm 2 mps 748 mmHg 63%
    17:00 +30°C° 0 mm 3 mps 748 mmHg 71%
    18:00 +28°C° 0 mm 3 mps 748 mmHg 80%
    19:00 +27°C° 0 mm 3 mps 748 mmHg 84%
    20:00 +26°C° 0 mm 3 mps 749 mmHg 88%
    21:00 +24°C° 0 mm 3 mps 750 mmHg 92%
    22:00 +24°C° 0 mm 2 mps 750 mmHg 92%
    23:00 +24°C° 0 mm 2 mps 750 mmHg 92%

    22 February, Friday

    Time Temperature Precipitation Wind Pressure Humidity
    00:00 +24°C° 0 mm 1 mps 750 mmHg 92%
    01:00 +23°C° 0 mm 1 mps 750 mmHg 92%
    02:00 +23°C° 0 mm 1 mps 749 mmHg 92%
    03:00 +22°C° 0 mm 1 mps 749 mmHg 93%
    04:00 +22°C° 0 mm 1 mps 749 mmHg 93%
    05:00 +22°C° 0 mm 1 mps 750 mmHg 93%
    06:00 +21°C° 0 mm 1 mps 750 mmHg 94%
    07:00 +23°C° 0 mm 1 mps 751 mmHg 90%
    08:00 +24°C° 0 mm 1 mps 751 mmHg 86%
    09:00 +26°C° 0 mm 2 mps 752 mmHg 82%
    10:00 +27°C° 0 mm 2 mps 752 mmHg 76%
    11:00 +29°C° 0 mm 2 mps 751 mmHg 70%
    12:00 +31°C° 0 mm 3 mps 751 mmHg 64%
    13:00 +32°C° 0 mm 2 mps 750 mmHg 62%
    14:00 +32°C° 0 mm 2 mps 749 mmHg 60%
    15:00 +34°C° 0 mm 2 mps 748 mmHg 57%
    16:00 +32°C° 0 mm 2 mps 749 mmHg 65%
    17:00 +30°C° 0 mm 3 mps 749 mmHg 73%
    18:00 +29°C° 0 mm 3 mps 749 mmHg 81%
    19:00 +28°C° 0 mm 3 mps 750 mmHg 84%
    20:00 +27°C° 0 mm 2 mps 750 mmHg 88%
    21:00 +26°C° 0 mm 2 mps 751 mmHg 91%
    22:00 +25°C° 0 mm 2 mps 751 mmHg 91%
    23:00 +25°C° 0 mm 2 mps 751 mmHg 90%
    Show more